Regional Weather Roundup
Issued by NWS Upton, NY

Current Version | Previous Version | Graphics & Text | Print | Product List | Glossary Off
Versions: 1 2 3 4 5 6 7 8 9 10 11 12 13 14 15 16 17 18 19 20 21 22 23 24 25 26 27 28 29 30 31 32 33 34 35 36 37 38 39 40 41 42 43 44 45 46 47 48 49 50

000
ASUS41 KOKX 301108
RWROKX

REGIONAL WEATHER ROUNDUP
NATIONAL WEATHER SERVICE NEW YORK NY
700 AM EDT TUE JUN 30 2015

NOTE: "FAIR" INDICATES FEW OR NO CLOUDS BELOW 12,000 FEET WITH NO
SIGNIFICANT WEATHER AND/OR OBSTRUCTIONS TO VISIBILITY.

NYZ071-072-176-178-NJZ106-104-301200-
NEW YORK CITY METRO AREA


CITY           SKY/WX    TMP DP  RH WIND       PRES   REMARKS
CENTRAL PARK   SUNNY     70  59  68 CALM      30.00R
LAGUARDIA APRT MOSUNNY   71  59  65 S6        29.97R
KENNEDY INTL   MOSUNNY   70  63  78 S3        29.98R
NEWARK/LIBERTY MOSUNNY   70  60  70 SE3       29.97R
BRNX BOT. GARD   N/A     70  59  68 NE1       29.98R
TETERBORO      PTSUNNY   69  60  73 CALM      29.96R
$$

NYZ177-179-078>081-301200-
LONG ISLAND NEW YORK

CITY           SKY/WX    TMP DP  RH WIND       PRES   REMARKS
FARMINGDALE    SUNNY     68  66  93 S5        29.99R
ISLIP          MOSUNNY   68  66  93 S6        29.98R
SHIRLEY        SUNNY     68  66  93 S6        30.00R
WESTHAMPTON    SUNNY     67  67 100 CALM      30.01R
MONTAUK POINT    N/A     68  64  87 VRB5      30.01R
$$

NYZ052-065-067-301200-
HUDSON VALLEY

CITY           SKY/WX    TMP DP  RH WIND       PRES   REMARKS
WHITE PLAINS   MOSUNNY   64  61  90 CALM      29.98R
NEWBURGH       PTSUNNY   63  63 100 CALM      29.99R
MONTGOMERY     CLOUDY    63  60  90 N5        29.97R
POUGHKEEPSIE   MOSUNNY   63  61  93 CALM      29.97R
ALBANY         PTSUNNY   62  58  86 CALM      29.99R
$$

NJZ001-105-106-008-010-013-015-019>022-104-301200-
NEW JERSEY

CITY           SKY/WX    TMP DP  RH WIND       PRES   REMARKS
NEWARK/LIBERTY MOSUNNY   70  60  70 SE3       29.97R
TETERBORO      PTSUNNY   69  60  73 CALM      29.96R
CALDWELL       CLOUDY    63  58  83 CALM      29.98R
MORRISTOWN     PTSUNNY   66  64  94 CALM      29.98R
SOMERVILLE     CLOUDY    61  59  93 CALM      29.96R
SUSSEX         CLOUDY    62  60  93 CALM      29.98R
ANDOVER          N/A     60  60 100 CALM      29.98R
TRENTON        CLOUDY    65  61  87 CALM      29.96R
MILLVILLE      LGT RAIN  69  66  90 SE5       29.97R
ATLANTIC CITY  MOSUNNY   71  66  84 S7        29.98R
WRIGHTSTOWN    CLOUDY    66  63  90 CALM      29.95R
TOMS RIVER     MOSUNNY   61  61 100 CALM      29.98S
BELMAR         SUNNY     66  59  77 SW3       29.98R
$$

PAZ047>061-062-071-301200-
EASTERN PENNSYLVANIA

CITY           SKY/WX    TMP DP  RH WIND       PRES   REMARKS
PHILADELPHIA   PTSUNNY   71  64  78 S6        29.96R
ALLENTOWN      CLOUDY    65  60  84 NE6       29.96R
SCRANTON       CLOUDY    66  59  78 NE6       29.94R
$$

CTZ002-004>006-009-010-012-RIZ004-006-007-MAZ004-011-015-301200-
SOUTHERN NEW ENGLAND
 IN CT

CITY           SKY/WX    TMP DP  RH WIND       PRES   REMARKS
BRADLEY INTL   PTSUNNY   60  57  89 E3        29.98R
HARTFORD       MOSUNNY   64  60  87 SE7       29.99R
DANBURY        PTSUNNY   63  57  81 CALM      30.00R
WTRBRY/OXFORD  MOSUNNY   64  57  77 SE6       30.00R
BRIDGEPORT     SUNNY     69  64  84 CALM      29.98R
MERIDEN        MOSUNNY   64  60  87 CALM      29.99R
NEW HAVEN      MOSUNNY   65  63  93 CALM      29.98R
CHESTER        FAIR      63  61  94 CALM      30.00R
GROTON         MOSUNNY   66  62  87 S3        29.98R
WILLIMANTIC    PTSUNNY   59  56  89 CALM      30.00R

 IN RI

CITY           SKY/WX    TMP DP  RH WIND       PRES   REMARKS
PROVIDENCE     PTSUNNY   65  60  84 CALM      29.99R
BLOCK ISLAND   SUNNY     66  63  88 SW10      30.00S
WESTERLY       CLOUDY    61  59  93 CALM      30.00R

 IN MA

CITY           SKY/WX    TMP DP  RH WIND       PRES   REMARKS
BOSTON         PTSUNNY   64  59  83 W3        29.99R
WORCESTER      PTSUNNY   62  55  77 SW3       30.01R
WESTFIELD      PTSUNNY   60  57  89 CALM      29.99R
PROVINCETOWN   MOSUNNY   63   7  11 SW8       30.00R
NANTUCKET      MOSUNNY   64  61  90 S5        30.01R
$$

ANZ330-335-338-340-345-350-353-355-301200-
COASTAL MARINE OBSERVATIONS


STATION/POSITION TIME  SKY/WX   TEMP    WIND        PRES    VSBY  WAVE
                                AIR SEA DIR/SP/G                  HT/PER
                 (UTC)          (F)     (DEG/KT/KT) (MB)    (MI)  (FT/S)
NY HARB ENTRANCE 1050            69 68  180/  6/  8 1014.7          3/ 8
4S FIRE IS       1003               66                N/A           3/ 8
20S FIRE ISLAND  1050            67 66  190/  8/ 10 1015.1          3/ 8
GREAT SOUTH BAY  1000            68 71  230/  6/  8   N/A
23SW MTP         1050            66 65  210/  8/ 10 1015.4          4/ 8
HUDSON CANYON    NOT AVBL
KINGS POINT      1000            66 64  190/  2/  3 1014.0
CENTRAL LI SOUND NOT AVBL
EASTERN LI SOUND 1000            64     130/  4/  6   N/A
ROBBINS REEF     1000            68     150/  2/  2 1013.5
$$


>>>>>>>>>>>>>>>>>>>>>>>>>>>> KEY <<<<<<<<<<<<<<<<<<<<<<<<<<<
>                                                          <
>     SKY/WX - SKY CONDITION/PRESENT WEATHER               <
>     TMP    - TEMPERATURE IN FAHRENHEIT                   <
>     DP     - DEWPOINT IN FAHRENHEIT                      <
>     RH     - RELATIVE HUMIDITY IN PERCENT                <
>     WIND   - DIRECTION AND SPEED IN MPH                  <
>     PRES   - MEAN SEA LEVEL PRESSURE IN INCHES OF HG     <
>     WCI    - WIND CHILL INDEX                            <
>     VSB    - VISIBILITY IN MILES                         <
>     HX     - HEAT INDEX                                  <
>     TC     - TEMPERATURE IN CELSIUS                      <
>     VRB    - VARIABLE WIND DIRECTION                     <
>                                                          <
>>>>>>>>>>>>>>>>>>>>>>>>>>>> KEY <<<<<<<<<<<<<<<<<<<<<<<<<<<





USA.gov is the U.S. government's official web portal to all federal, state and local government web resources and services.